Flag for Germany Weather past 2 weeks in Lünen, North Rhine-Westphalia, Germany

Now
56 °F

Overcast.


Feels Like: 56 °F
Forecast: 45 / 68 °F
Wind: 2 mph from Northwest

Location: Muenster / Osnabrueck

Current Time: May 23, 2015 at 5:02:43 AM

Latest Report: May 23, 2015 at 4:00 AM


Visibility: 13 mi

Pressure: 30.16 "Hg

Humidity: 78%

Dew point: 49 °F

Location of LünenLocation

Historic Weather in Lünen — Graph

°F

Lünen temperature yesterday

Maximum temperature yesterday: 69 °F (at 5:00 PM)
Minimum temperature yesterday: 44 °F (at 5:00 AM)
Average temperature yesterday: 57 °F

Past Weeks' High & Low Weather Summary

 TemperatureHumidityPressure
High77 °F (May 11, 7:00 PM)98% (May 21, 1:00 AM)30.35 "Hg (May 21, 1:00 AM)
Low38 °F (May 17, 6:00 AM)29% (May 11, 6:00 PM)29.61 "Hg (May 18, 8:00 PM)
Average55 °F67%30.06 "Hg
* Reported May 8 4:00 AM — May 23 4:00 AM, Lünen, Weather by CustomWeather, © 2015

Note: Actual official high and low records may vary slightly from our data, if they occured in-between our weather recording intervals... More about our weather records

Advertising

Lünen weather history for previous 24 hours

 ConditionsComfort  
Time TempWeatherWind HumidityBarometerVisibility
4:00 AM
Sat, May 23
56 °FOvercast.2 mph78%30.16 "Hg12 mi
3:00 AM56 °FOvercast.1 mph78%30.17 "Hg12 mi
2:00 AM59 °FOvercast.2 mph70%30.19 "Hg12 mi
1:00 AM58 °FOvercast.1 mph72%30.20 "Hg12 mi
12:00 AM60 °FOvercast.3 mph66%30.21 "Hg12 mi
11:00 PM
Fri, May 22
60 °FOvercast.2 mph64%30.20 "Hg12 mi
10:00 PM61 °FOvercast.1 mph61%30.20 "Hg12 mi
9:00 PM64 °FOvercast.1 mph52%30.19 "Hg12 mi
8:00 PM65 °FOvercast.2 mph44%30.19 "Hg12 mi
7:00 PM66 °FOvercast.3 mph43%30.19 "Hg12 mi
6:00 PM66 °FOvercast.3 mph42%30.21 "Hg12 mi
5:00 PM69 °FPartly sunny.5 mph38%30.22 "Hg16 mi
4:00 PM67 °FPartly sunny.3 mph43%30.23 "Hg16 mi
3:00 PM66 °FPartly sunny.5 mph44%30.25 "Hg16 mi
2:00 PM66 °FPartly sunny.5 mph45%30.27 "Hg47 mi
1:00 PM65 °FPartly sunny.5 mph47%30.29 "Hg16 mi
12:00 PM63 °FPartly sunny.5 mph49%30.30 "Hg16 mi
11:00 AM60 °FScattered clouds.5 mph50%30.30 "Hg16 mi
10:00 AM59 °FPartly sunny.5 mph60%30.32 "Hg16 mi
9:00 AM54 °FOvercast.2 mph72%30.33 "Hg16 mi
8:00 AM51 °FOvercast.2 mph79%30.33 "Hg16 mi
7:00 AM47 °FOvercast.1 mph89%30.33 "Hg16 mi
6:00 AM45 °FFog.1 mph95%30.32 "Hg16 mi
5:00 AM44 °FFog.1 mph95%30.32 "Hg19 mi
Weather by CustomWeather, © 2015

See weather overviewHow to use our weather pages